EXS89VB LERS-EGBB

Flight info

Callsign EXS89VB
Flight time N/A
Altitude 40000
Route NATPI DCT EVNAM DCT TUPAR UN861 DIKRO UM184 HEMEL
Aircraft B738/M-SDE2E3FGHIRWXY/LB1

Departure

Time 2026-05-08 19:40
Airport Reus Airport (LERS)

Arrival

Time N/A
Airport Birmingham Airport (EGBB)
Time Latitude Longitude Altitude Speed Heading
2026-05-08 18:48 41.14811 1.16064 240 ft 0 kts 339°
2026-05-08 19:32 41.14792 1.16074 241 ft 4 kts 339°
2026-05-08 19:32 41.14770 1.16085 241 ft 2 kts 338°
2026-05-08 19:33 41.14748 1.16091 241 ft 4 kts 21°
2026-05-08 19:33 41.14729 1.16070 241 ft 4 kts 62°
2026-05-08 19:33 41.14723 1.16055 241 ft 1 kts 69°
2026-05-08 19:35 41.14726 1.16064 241 ft 5 kts 69°
2026-05-08 19:35 41.14749 1.16145 241 ft 14 kts 69°
2026-05-08 19:36 41.14796 1.16304 241 ft 23 kts 68°
2026-05-08 19:36 41.14862 1.16532 241 ft 29 kts 69°
2026-05-08 19:36 41.14935 1.16782 241 ft 28 kts 69°
2026-05-08 19:36 41.15005 1.17018 241 ft 27 kts 69°
2026-05-08 19:37 41.15070 1.17239 241 ft 25 kts 69°
2026-05-08 19:37 41.15129 1.17444 241 ft 23 kts 69°
2026-05-08 19:37 41.15105 1.17567 241 ft 14 kts 158°
2026-05-08 19:37 41.15024 1.17609 241 ft 4 kts 156°
2026-05-08 19:38 41.14998 1.17598 241 ft 4 kts 237°
2026-05-08 19:38 41.14993 1.17581 241 ft 0 kts 248°
2026-05-08 19:39 41.14968 1.17500 241 ft 37 kts 249°
2026-05-08 19:39 41.14787 1.16880 241 ft 106 kts 249°
2026-05-08 19:39 41.14448 1.15719 270 ft 159 kts 249°
2026-05-08 19:39 41.14001 1.14338 790 ft 167 kts 235°
2026-05-08 19:40 41.13355 1.13014 1443 ft 174 kts 239°
2026-05-08 19:40 41.12732 1.11586 2067 ft 185 kts 239°
2026-05-08 19:40 41.12033 1.09986 2326 ft 214 kts 237°
2026-05-08 19:40 41.11245 1.08274 2718 ft 224 kts 236°
2026-05-08 19:41 41.10430 1.06501 3253 ft 229 kts 236°
2026-05-08 19:41 41.09554 1.04599 3438 ft 254 kts 237°
2026-05-08 19:41 41.08610 1.02540 3944 ft 266 kts 237°
2026-05-08 19:41 41.07652 1.00441 4833 ft 265 kts 237°
2026-05-08 19:42 41.06713 0.98384 5678 ft 265 kts 237°
2026-05-08 19:42 41.05755 0.96288 6463 ft 267 kts 238°
2026-05-08 19:42 41.04793 0.94177 7259 ft 267 kts 239°
2026-05-08 19:42 41.04280 0.91810 7901 ft 276 kts 271°
2026-05-08 19:43 41.04788 0.89360 8650 ft 281 kts 297°
2026-05-08 19:43 41.06038 0.87353 9376 ft 288 kts 320°
2026-05-08 19:43 41.07830 0.86146 10096 ft 295 kts 344°
2026-05-08 19:43 41.09855 0.85925 10756 ft 300 kts
2026-05-08 19:44 41.11933 0.86279 11453 ft 303 kts
2026-05-08 19:44 41.14060 0.86737 11841 ft 320 kts
2026-05-08 19:44 41.16332 0.87254 12017 ft 341 kts
2026-05-08 19:44 41.18720 0.87807 12437 ft 354 kts
2026-05-08 19:45 41.21162 0.88375 13099 ft 358 kts
2026-05-08 19:45 41.23626 0.88947 13846 ft 361 kts
2026-05-08 19:45 41.26112 0.89519 14459 ft 365 kts
2026-05-08 19:45 41.28637 0.90098 15070 ft 371 kts
2026-05-08 19:46 41.31194 0.90683 15690 ft 376 kts
2026-05-08 19:46 41.33755 0.91267 16312 ft 380 kts
2026-05-08 19:46 41.39044 0.92472 17515 ft 392 kts
2026-05-08 19:47 41.41748 0.93090 18134 ft 396 kts
2026-05-08 19:47 41.44481 0.93715 18706 ft 400 kts
2026-05-08 19:47 41.47233 0.94345 19280 ft 403 kts
2026-05-08 19:47 41.50005 0.94982 19865 ft 406 kts
2026-05-08 19:48 41.52806 0.95625 20365 ft 411 kts
2026-05-08 19:48 41.55632 0.96273 20886 ft 415 kts
2026-05-08 19:48 41.58451 0.96920 21454 ft 417 kts
2026-05-08 19:48 41.61320 0.97580 22004 ft 420 kts
2026-05-08 19:49 41.64215 0.98247 22513 ft 424 kts
2026-05-08 19:49 41.67134 0.98919 23013 ft 428 kts
2026-05-08 19:49 41.70078 0.99598 23514 ft 431 kts
2026-05-08 19:49 41.73045 1.00282 23941 ft 434 kts
2026-05-08 19:50 41.76032 1.00973 24378 ft 436 kts
2026-05-08 19:50 41.79029 1.01666 24832 ft 439 kts
2026-05-08 19:50 41.82045 1.02365 25253 ft 441 kts
2026-05-08 19:50 41.85080 1.03068 25653 ft 444 kts
2026-05-08 19:51 41.88089 1.03766 26045 ft 446 kts
2026-05-08 19:51 41.91159 1.04479 26452 ft 449 kts
2026-05-08 19:51 41.94246 1.05196 26854 ft 451 kts
2026-05-08 19:51 41.97344 1.05916 27208 ft 454 kts
2026-05-08 19:52 42.00464 1.06644 27602 ft 455 kts
2026-05-08 19:52 42.03589 1.07377 28025 ft 457 kts
2026-05-08 19:52 42.06734 1.08110 28383 ft 460 kts
2026-05-08 19:52 42.09900 1.08847 28730 ft 463 kts
2026-05-08 19:53 42.13088 1.09590 29050 ft 466 kts
2026-05-08 19:53 42.16254 1.10329 29356 ft 470 kts
2026-05-08 19:53 42.19480 1.11086 29784 ft 471 kts
2026-05-08 19:53 42.22709 1.11843 30164 ft 472 kts
2026-05-08 19:54 42.25952 1.12606 30428 ft 474 kts
2026-05-08 19:54 42.29215 1.13373 30663 ft 477 kts
2026-05-08 19:54 42.32492 1.14143 30918 ft 479 kts
2026-05-08 19:54 42.35757 1.14912 31191 ft 481 kts
2026-05-08 19:55 42.39051 1.15689 31507 ft 481 kts
2026-05-08 19:55 42.42347 1.16468 31921 ft 480 kts
2026-05-08 19:55 42.45593 1.17235 32194 ft 481 kts
2026-05-08 19:55 42.48900 1.17773 32436 ft 476 kts 356°
2026-05-08 19:56 42.52175 1.17522 32718 ft 468 kts 345°
2026-05-08 19:56 42.55308 1.16578 33105 ft 455 kts 336°
2026-05-08 19:56 42.58311 1.15251 33441 ft 454 kts 335°
2026-05-08 19:56 42.61324 1.13886 33621 ft 458 kts 335°
2026-05-08 19:57 42.64365 1.12500 33735 ft 463 kts 335°
2026-05-08 19:57 42.67426 1.11113 34069 ft 463 kts 336°
2026-05-08 19:57 42.70472 1.09747 34442 ft 460 kts 336°
2026-05-08 19:57 42.73468 1.08413 34680 ft 459 kts 336°
2026-05-08 19:58 42.76509 1.07061 34830 ft 460 kts 336°
2026-05-08 19:58 42.79560 1.05706 34985 ft 461 kts 335°
2026-05-08 19:58 42.82608 1.04351 35200 ft 461 kts 336°
2026-05-08 19:58 42.85656 1.02999 35498 ft 460 kts 336°
2026-05-08 19:59 42.88701 1.01649 35763 ft 460 kts 335°
2026-05-08 19:59 42.91743 1.00299 35998 ft 459 kts 335°
2026-05-08 19:59 42.94783 0.98945 36187 ft 460 kts 335°
2026-05-08 19:59 42.97824 0.97589 36415 ft 460 kts 335°
2026-05-08 20:00 43.00818 0.96253 36665 ft 459 kts 335°
2026-05-08 20:00 43.03847 0.94899 36901 ft 457 kts 336°
2026-05-08 20:00 43.06867 0.93549 37187 ft 455 kts 335°
2026-05-08 20:00 43.09877 0.92201 37373 ft 456 kts 335°
2026-05-08 20:01 43.12897 0.90847 37523 ft 457 kts 335°
2026-05-08 20:01 43.15913 0.89492 37733 ft 456 kts 335°
2026-05-08 20:01 43.18924 0.88140 37954 ft 455 kts 335°
2026-05-08 20:01 43.21939 0.86783 37960 ft 458 kts 335°
2026-05-08 20:02 43.27981 0.84058 37979 ft 462 kts 335°
2026-05-08 20:02 43.34090 0.81301 37981 ft 462 kts 335°
2026-05-08 20:03 43.40204 0.78537 37969 ft 463 kts 335°
2026-05-08 20:03 43.46333 0.75760 37985 ft 464 kts 336°
2026-05-08 20:04 43.52426 0.72993 37966 ft 464 kts 336°
2026-05-08 20:04 43.58561 0.70201 37963 ft 464 kts 336°
2026-05-08 20:05 43.64690 0.67405 37976 ft 464 kts 336°
2026-05-08 20:05 43.70815 0.64605 37957 ft 463 kts 336°
2026-05-08 20:06 43.75900 0.62276 37960 ft 463 kts 336°
2026-05-08 20:06 43.82988 0.59023 37962 ft 461 kts 336°
2026-05-08 20:07 43.89084 0.56218 37939 ft 461 kts 337°
2026-05-08 20:07 43.95161 0.53415 37953 ft 460 kts 337°
2026-05-08 20:08 44.00201 0.51086 37942 ft 460 kts 337°
2026-05-08 20:08 44.07257 0.47819 37939 ft 459 kts 337°
2026-05-08 20:09 44.12332 0.45464 37949 ft 460 kts 337°
2026-05-08 20:09 44.18369 0.42657 37952 ft 460 kts 337°
2026-05-08 20:10 44.24445 0.39825 37942 ft 461 kts 338°
2026-05-08 20:10 44.30534 0.36981 37950 ft 463 kts 338°
2026-05-08 20:11 44.36649 0.34119 37949 ft 464 kts 338°
2026-05-08 20:11 44.42733 0.31266 37956 ft 465 kts 338°
2026-05-08 20:12 44.48876 0.28378 37937 ft 466 kts 338°
2026-05-08 20:12 44.55032 0.25478 37940 ft 467 kts 338°
2026-05-08 20:13 44.61197 0.22567 37935 ft 468 kts 338°
2026-05-08 20:13 44.67318 0.19671 37939 ft 467 kts 338°
2026-05-08 20:14 44.73482 0.16747 37939 ft 467 kts 338°
2026-05-08 20:14 44.79640 0.13820 37943 ft 467 kts 338°
2026-05-08 20:15 44.85794 0.10888 37941 ft 466 kts 338°
2026-05-08 20:15 44.91933 0.07957 37944 ft 466 kts 338°
2026-05-08 20:16 44.98023 0.05042 37940 ft 465 kts 338°
2026-05-08 20:16 45.04142 0.02107 37943 ft 464 kts 339°
2026-05-08 20:17 45.10252 -0.00830 37950 ft 463 kts 339°
2026-05-08 20:17 45.16314 -0.03752 37939 ft 463 kts 339°
2026-05-08 20:18 45.22414 -0.06696 37942 ft 463 kts 339°
2026-05-08 20:18 45.28518 -0.09651 37941 ft 463 kts 339°
2026-05-08 20:19 45.34622 -0.12613 37939 ft 464 kts 339°
2026-05-08 20:19 45.40736 -0.15587 37938 ft 465 kts 339°
2026-05-08 20:20 45.46815 -0.18549 37938 ft 465 kts 339°
2026-05-08 20:20 45.52943 -0.21543 37939 ft 466 kts 339°
2026-05-08 20:21 45.59087 -0.24551 37945 ft 467 kts 340°
2026-05-08 20:21 45.65271 -0.27418 37931 ft 469 kts 347°
2026-05-08 20:22 45.71680 -0.28796 37937 ft 469 kts 352°
2026-05-08 20:22 45.78165 -0.29932 37940 ft 470 kts 352°
2026-05-08 20:23 45.84654 -0.31129 37932 ft 470 kts 352°
2026-05-08 20:23 45.91134 -0.32397 37936 ft 470 kts 352°
2026-05-08 20:24 45.97618 -0.33694 37941 ft 470 kts 352°
2026-05-08 20:24 46.04063 -0.34990 37935 ft 471 kts 352°
2026-05-08 20:25 46.10546 -0.36294 37940 ft 470 kts 352°
2026-05-08 20:25 46.17026 -0.37599 37952 ft 470 kts 352°
2026-05-08 20:26 46.23499 -0.38904 37943 ft 469 kts 352°
2026-05-08 20:26 46.29916 -0.40201 37949 ft 468 kts 352°
2026-05-08 20:27 46.36364 -0.41508 37948 ft 468 kts 352°
2026-05-08 20:27 46.42799 -0.42816 37961 ft 467 kts 352°
2026-05-08 20:28 46.49223 -0.44124 37961 ft 466 kts 352°
2026-05-08 20:28 46.55594 -0.45425 37955 ft 465 kts 352°
2026-05-08 20:29 46.61997 -0.46735 37962 ft 464 kts 352°
2026-05-08 20:29 46.68390 -0.48046 37956 ft 463 kts 352°
2026-05-08 20:30 46.74772 -0.49358 37958 ft 463 kts 352°
2026-05-08 20:30 46.81147 -0.50672 37962 ft 463 kts 352°
2026-05-08 20:31 46.87478 -0.51980 37963 ft 462 kts 352°
2026-05-08 20:31 46.93850 -0.53300 37960 ft 463 kts 352°
2026-05-08 20:32 47.00223 -0.54623 37961 ft 463 kts 352°
2026-05-08 20:32 47.06603 -0.55950 37976 ft 463 kts 352°
2026-05-08 20:33 47.12943 -0.57273 37964 ft 464 kts 352°
2026-05-08 20:33 47.19335 -0.58609 37972 ft 464 kts 352°
2026-05-08 20:34 47.25713 -0.59946 37981 ft 464 kts 352°